Stevens Point, WI

1:01 PM CDT on August 29, 2016 (GMT -0500)
Stevens Point Municipal

Weather History for KSTE - November, 2013

Change the Weather History Date:

Saturday, November 30, 2013

  Actual Average Record
Temperature  
Mean Temperature 29 °F -  
Max Temperature 35 °F 35 °F 62 °F (1998)
Min Temperature 23 °F 20 °F -10 °F (1976)
Degree Days  
Heating Degree Days 36    
Moisture  
Dew Point 22 °F    
Average Humidity 74    
Maximum Humidity 84    
Minimum Humidity 64    
Precipitation  
Precipitation 0.00 in - - ()
Sea Level Pressure  
Sea Level Pressure 30.08 in    
Wind  
Wind Speed 5 mph (SW)    
Max Wind Speed 9 mph    
Max Gust Speed -    
Visibility 10 miles    
Events      
Averages and records for this station are not official NWS values.
T = Trace of Precipitation, MM = Missing Value Source: NWS Daily Summary

Daily Weather History Graph

Daily Weather History Graph

Search for Another Location

Airport or City:

Trip Planner

Search our weather history database for the weather conditions in past years. The results will help you decide how hot, cold, wet, or windy it might be!

Date:

Astronomy

Nov. 30, 2013 Rise Set
Actual Time 7:13 AM CST 4:19 PM CST
Civil Twilight 6:41 AM CST 4:52 PM CST
Nautical Twilight 6:04 AM CST 5:28 PM CST
Astronomical Twilight 5:29 AM CST 6:03 PM CST
Moon 4:19 AM CST (11/30) 2:48 PM CST (11/30)
Length of Visible Light 10h 11m
Length of Day
9h 06m
Waning Crescent, 7% of the Moon is Illuminated
Nov 30
Waning Crescent
Dec 2
New
Dec 9
First Quarter
Dec 17
Full
Dec 25
Last Quarter

Hourly Weather History & Observations

Time (CST) Temp. Windchill Dew Point Humidity Pressure Visibility Wind Dir Wind Speed Gust Speed Precip Events Conditions
12:15 AM 23.0 °F 17.0 °F 15.4 °F 73% 30.25 in 10.0 mi South 4.6 mph - N/A   Scattered Clouds
12:35 AM 23.4 °F 15.2 °F 15.8 °F 73% 30.25 in 10.0 mi South 6.9 mph - N/A   Overcast
12:55 AM 23.7 °F 16.6 °F 16.2 °F 73% 30.24 in 10.0 mi South 5.8 mph - N/A   Overcast
1:15 AM 23.9 °F 16.8 °F 16.5 °F 73% 30.24 in 10.0 mi South 5.8 mph - N/A   Overcast
1:35 AM 24.1 °F 18.2 °F 16.7 °F 73% 30.23 in 10.0 mi South 4.6 mph - N/A   Overcast
1:55 AM 24.4 °F 17.5 °F 17.2 °F 74% 30.22 in 10.0 mi South 5.8 mph - N/A   Overcast
2:15 AM 24.6 °F 18.8 °F 17.4 °F 74% 30.21 in 10.0 mi South 4.6 mph - N/A   Overcast
2:35 AM 24.8 °F 17.9 °F 17.8 °F 75% 30.20 in 10.0 mi South 5.8 mph - N/A   Overcast
2:55 AM 25.2 °F 18.3 °F 18.1 °F 75% 30.18 in 10.0 mi SSE 5.8 mph - N/A   Overcast
3:15 AM 25.3 °F 17.6 °F 18.5 °F 75% 30.17 in 10.0 mi SSE 6.9 mph - N/A   Overcast
3:35 AM 25.7 °F 19.0 °F 18.5 °F 74% 30.16 in 10.0 mi South 5.8 mph - N/A   Overcast
3:55 AM 26.1 °F 18.4 °F 18.9 °F 74% 30.15 in 10.0 mi South 6.9 mph - N/A   Overcast
4:15 AM 26.4 °F 19.8 °F 19.2 °F 74% 30.14 in 10.0 mi South 5.8 mph - N/A   Overcast
4:35 AM 26.6 °F 19.1 °F 19.4 °F 74% 30.13 in 10.0 mi South 6.9 mph - N/A   Overcast
4:55 AM 26.6 °F 19.1 °F 19.6 °F 75% 30.13 in 10.0 mi South 6.9 mph - N/A   Overcast
5:15 AM 26.8 °F 20.2 °F 19.9 °F 75% 30.12 in 10.0 mi South 5.8 mph - N/A   Overcast
5:35 AM 26.8 °F 19.3 °F 20.1 °F 76% 30.11 in 10.0 mi South 6.9 mph - N/A   Overcast
5:55 AM 27.0 °F 19.5 °F 20.3 °F 76% 30.11 in 10.0 mi South 6.9 mph - N/A   Overcast
6:15 AM 25.5 °F 18.7 °F 19.4 °F 78% 30.11 in 10.0 mi South 5.8 mph - N/A   Scattered Clouds
6:35 AM 24.8 °F 17.9 °F 19.2 °F 79% 30.10 in 10.0 mi South 5.8 mph - N/A   Clear
6:55 AM 24.4 °F 18.6 °F 19.2 °F 81% 30.10 in 10.0 mi South 4.6 mph - N/A   Clear
7:15 AM 23.9 °F 19.5 °F 19.2 °F 82% 30.09 in 10.0 mi South 3.5 mph - N/A   Clear
7:35 AM 24.8 °F 19.1 °F 19.6 °F 81% 30.09 in 10.0 mi South 4.6 mph - N/A   Clear
7:55 AM 26.4 °F 19.8 °F 20.5 °F 78% 30.09 in 10.0 mi South 5.8 mph - N/A   Clear
8:15 AM 27.3 °F 19.9 °F 21.2 °F 78% 30.09 in 10.0 mi South 6.9 mph - N/A   Clear
8:35 AM 28.4 °F 20.4 °F 21.7 °F 76% 30.08 in 10.0 mi SSW 8.1 mph - N/A   Clear
8:55 AM 29.8 °F 21.5 °F 22.1 °F 73% 30.08 in 10.0 mi SSW 9.2 mph - N/A   Clear
9:15 AM 30.0 °F 21.7 °F 22.1 °F 72% 30.07 in 10.0 mi SSW 9.2 mph - N/A   Clear
9:35 AM 30.2 °F 22.6 °F 22.5 °F 73% 30.07 in 10.0 mi SSW 8.1 mph - N/A   Clear
9:55 AM 31.1 °F 23.7 °F 22.8 °F 71% 30.07 in 10.0 mi SSW 8.1 mph - N/A   Clear
10:15 AM 31.8 °F 26.2 °F 23.0 °F 70% 30.07 in 10.0 mi SSW 5.8 mph - N/A   Clear
10:35 AM 32.4 °F 26.9 °F 23.0 °F 68% 30.06 in 10.0 mi SW 5.8 mph - N/A   Scattered Clouds
10:55 AM 33.4 °F 28.1 °F 23.2 °F 66% 30.05 in 10.0 mi WSW 5.8 mph - N/A   Clear
11:15 AM 33.3 °F 27.9 °F 23.7 °F 68% 30.04 in 10.0 mi SW 5.8 mph - N/A   Clear
11:35 AM 34.0 °F 28.8 °F 23.7 °F 66% 30.03 in 10.0 mi WSW 5.8 mph - N/A   Clear
11:55 AM 34.2 °F 29.0 °F 23.9 °F 66% 30.02 in 10.0 mi SW 5.8 mph - N/A   Clear
12:15 PM 34.5 °F 29.4 °F 23.9 °F 65% 30.02 in 10.0 mi WSW 5.8 mph - N/A   Clear
12:35 PM 34.3 °F 31.4 °F 23.9 °F 66% 30.02 in 10.0 mi SW 3.5 mph - N/A   Clear
12:55 PM 34.7 °F 30.6 °F 24.3 °F 66% 30.01 in 10.0 mi WSW 4.6 mph - N/A   Clear
1:15 PM 35.1 °F 32.2 °F 23.9 °F 64% 30.00 in 10.0 mi WSW 3.5 mph - N/A   Clear
1:35 PM 35.1 °F - 24.6 °F 66% 30.00 in 10.0 mi Calm Calm - N/A   Clear
1:55 PM 34.9 °F - 23.9 °F 64% 30.00 in 10.0 mi Calm Calm - N/A   Clear
2:15 PM 33.8 °F 30.8 °F 24.3 °F 68% 30.00 in 10.0 mi NNW 3.5 mph - N/A   Clear
2:35 PM 34.9 °F 30.8 °F 24.3 °F 65% 30.00 in 10.0 mi NW 4.6 mph - N/A   Clear
2:55 PM 34.5 °F - 23.9 °F 65% 30.00 in 10.0 mi Calm Calm - N/A   Clear
3:15 PM 33.6 °F - 23.9 °F 68% 30.00 in 10.0 mi Calm Calm - N/A   Clear
3:35 PM 31.8 °F - 23.9 °F 73% 30.01 in 10.0 mi Calm Calm - N/A   Clear
3:55 PM 30.0 °F - 23.9 °F 78% 30.01 in 10.0 mi Calm Calm - N/A   Clear
4:15 PM 29.3 °F - 23.7 °F 80% 30.01 in 10.0 mi Calm Calm - N/A   Mostly Cloudy
4:35 PM 28.8 °F - 23.7 °F 81% 30.01 in 10.0 mi Calm Calm - N/A   Overcast
4:55 PM 28.6 °F - 24.1 °F 83% 30.02 in 10.0 mi Calm Calm - N/A   Overcast
5:15 PM 28.4 °F - 24.1 °F 84% 30.02 in 10.0 mi Calm Calm - N/A   Overcast
5:35 PM 29.8 °F - 24.4 °F 80% 30.03 in 10.0 mi Calm Calm - N/A   Overcast
5:55 PM 29.3 °F - 24.8 °F 83% 30.04 in 10.0 mi Calm Calm - N/A   Overcast
6:15 PM 30.2 °F - 24.8 °F 80% 30.04 in 10.0 mi Calm Calm - N/A   Overcast
6:35 PM 31.6 °F 28.3 °F 23.9 °F 73% 30.05 in 10.0 mi NW 3.5 mph - N/A   Overcast
6:55 PM 32.0 °F 28.7 °F 23.9 °F 72% 30.05 in 10.0 mi WNW 3.5 mph - N/A   Overcast
7:15 PM 31.8 °F - 23.9 °F 73% 30.05 in 10.0 mi Calm Calm - N/A   Overcast
7:35 PM 31.6 °F 28.3 °F 23.9 °F 73% 30.05 in 10.0 mi NW 3.5 mph - N/A   Overcast
7:55 PM 31.8 °F - 24.3 °F 74% 30.05 in 10.0 mi Calm Calm - N/A   Overcast
8:15 PM 31.5 °F - 24.3 °F 75% 30.05 in 10.0 mi Calm Calm - N/A   Overcast
8:35 PM 31.1 °F - 24.1 °F 75% 30.04 in 10.0 mi Calm Calm - N/A   Overcast
8:55 PM 31.6 °F 28.3 °F 24.3 °F 74% 30.05 in 10.0 mi NNW 3.5 mph - N/A   Overcast
9:15 PM 31.8 °F 27.3 °F 24.4 °F 74% 30.05 in 10.0 mi NNW 4.6 mph - N/A   Overcast
9:35 PM 32.0 °F 27.5 °F 24.3 °F 73% 30.05 in 10.0 mi North 4.6 mph - N/A   Overcast
9:55 PM 31.6 °F 27.0 °F 24.3 °F 74% 30.05 in 10.0 mi NNW 4.6 mph - N/A   Overcast
10:15 PM 30.9 °F 26.2 °F 24.1 °F 76% 30.05 in 10.0 mi NNW 4.6 mph - N/A   Overcast
10:35 PM 30.2 °F 26.7 °F 23.9 °F 77% 30.06 in 10.0 mi North 3.5 mph - N/A   Scattered Clouds
10:55 PM 29.3 °F 25.6 °F 23.7 °F 80% 30.06 in 10.0 mi NNW 3.5 mph - N/A   Clear
11:15 PM 29.1 °F 25.4 °F 23.7 °F 80% 30.06 in 10.0 mi NNW 3.5 mph - N/A   Clear
11:35 PM 28.4 °F 24.6 °F 23.7 °F 83% 30.07 in 10.0 mi NNW 3.5 mph - N/A   Clear
11:55 PM 28.4 °F 23.3 °F 23.5 °F 82% 30.07 in 10.0 mi North 4.6 mph - N/A   Clear